ARSAT 2

Last updated on Tue Dec 16 2025 00:02:50 GMT+0000 (Coordinated Universal Time)

1 40941U 15054B 25349.30461580 -.00000204 00000+0 00000+0 0 9998 2 40941 0.0164 19.6447 0001777 242.4337 210.7903 1.00271807 37467
UTC large
Height (km)
Speed (km/s)
/
Latitude / Longitude
Inclination (degrees)
Orbital Period (minutes)
Azimuth
Elevation
Range (km)
Doppler Factor

Next 0 passes for location: London (51.5072 / 0.1276)

Sorry there are no passes over London.